Theta_e
306 306 306 306 307 308 308 308 308 308 308 308 308 308 308 309 309 309 310 311 311 311 311 312 312 313 313 314 315 315 316 316 315 315 314 312 313 314 314 315 315 316 316 316 316 316 316 317 317 316 316 315 315 315 315 315 312 314 318 316 316 316 315 314 315 314 312 311 307 304 304 302 301 301 301 300 301 301 301 300 300 300 299 299 299 299 299 299
307 307 307 306 307 307 308 308 308 308 308 308 308 308 308 308 309 310 310 311 311 311 311 312 313 313 313 314 314 315 316 315 315 315 313 312 313 314 314 315 315 316 316 316 315 315 316 316 316 315 315 314 314 314 313 313 311 313 316 316 315 314 312 310 311 310 309 310 306 303 303 302 301 300 300 301 300 300 300 300 299 299 299 300 299 299 299 299
308 308 307 307 307 307 308 308 308 308 308 308 308 308 308 308 309 310 310 310 311 311 311 311 312 312 313 313 313 314 315 314 314 313 313 313 314 314 314 314 315 316 315 316 316 315 315 315 315 315 314 313 311 312 312 311 311 310 313 316 312 310 309 308 309 308 308 309 305 302 302 302 302 301 301 301 300 300 300 300 299 300 300 300 300 299 299 300
308 308 308 308 308 307 308 308 308 308 308 308 307 308 308 308 308 308 309 309 310 311 311 311 311 312 312 312 313 313 313 313 312 311 312 313 314 314 314 315 315 316 315 315 315 314 314 314 315 314 313 311 309 310 309 309 311 308 311 314 309 307 309 308 309 308 307 306 304 303 302 302 302 302 301 301 300 300 300 301 300 300 300 300 299 299 299 299
309 309 309 308 308 308 308 308 308 308 308 308 308 308 308 308 308 308 308 309 309 310 311 311 311 311 311 311 312 312 313 314 311 311 313 313 314 314 314 314 315 315 315 315 314 314 314 314 314 312 310 308 308 310 308 307 309 307 307 308 306 307 308 307 308 307 306 305 304 303 303 302 302 302 302 301 302 302 301 301 301 300 300 300 299 299 299 299
309 309 309 309 309 309 308 308 308 308 308 308 308 308 308 308 308 308 309 309 310 310 310 310 311 312 311 311 312 311 313 313 310 311 313 313 314 314 314 314 314 314 314 313 313 313 313 312 312 310 308 306 306 308 308 307 307 307 306 305 305 306 305 305 306 306 305 304 303 302 302 302 302 302 301 301 302 302 301 301 301 300 300 300 300 299 299 299
309 309 309 309 309 309 308 308 308 308 308 308 308 308 308 308 308 309 309 309 309 310 310 310 310 311 311 311 312 311 311 309 309 312 313 313 313 312 313 313 313 313 313 312 312 312 312 311 311 308 306 306 306 305 306 307 306 307 307 304 305 306 305 305 305 305 304 303 303 303 302 302 302 302 302 301 302 301 301 301 300 300 300 300 300 300 299 299
309 309 309 309 309 308 308 307 308 308 309 308 308 308 308 308 308 309 309 309 309 310 310 310 310 310 311 311 311 311 309 308 310 312 312 312 313 312 312 313 313 312 312 312 311 311 311 310 309 308 307 307 307 305 305 307 305 306 306 304 304 305 304 305 305 304 303 303 303 303 303 302 302 302 302 302 302 301 301 301 300 300 300 300 300 300 300 299
309 309 309 309 308 308 308 308 307 308 308 309 309 309 309 308 309 309 309 310 310 311 312 311 311 310 311 311 312 311 307 308 310 311 312 312 312 312 312 312 312 311 311 310 310 311 310 309 308 308 307 306 306 305 304 306 306 305 305 304 304 303 303 303 304 303 303 303 303 303 302 302 302 302 303 302 302 302 301 301 300 300 300 300 300 300 300 299
308 309 309 309 308 308 308 308 308 308 308 309 309 309 309 309 309 309 309 310 311 311 311 311 311 311 311 311 312 310 307 308 310 311 312 312 312 312 313 312 311 310 310 310 309 310 310 309 308 308 307 305 305 304 304 306 306 305 304 303 303 303 303 303 303 302 303 303 303 303 302 302 301 302 305 303 302 301 301 301 301 301 301 301 301 300 300 300
308 309 309 309 308 308 308 308 308 308 309 309 309 309 309 309 309 310 310 311 310 310 310 310 311 311 310 311 311 308 307 308 309 310 311 311 311 311 312 311 311 310 310 310 309 309 309 308 308 308 307 306 305 305 304 305 305 304 304 304 303 303 303 303 303 303 303 303 303 302 301 302 301 302 305 303 302 302 301 301 301 301 301 301 301 300 300 300
308 309 309 309 308 308 308 308 308 309 309 308 309 309 309 310 310 310 310 310 309 309 310 310 310 310 311 311 308 307 307 307 308 309 310 310 310 310 310 310 310 310 310 309 309 309 309 309 309 309 307 306 305 305 304 304 304 303 304 304 303 303 304 303 303 303 303 303 303 302 303 304 304 304 304 303 302 302 301 302 301 301 301 301 301 301 301 301
308 308 309 308 308 308 308 308 308 308 309 309 309 309 309 310 309 310 310 309 309 309 309 310 309 310 311 309 306 306 307 307 308 308 309 309 309 310 310 310 309 309 309 309 309 309 309 309 309 308 306 306 305 305 305 303 304 304 303 304 305 306 306 303 303 303 302 303 302 302 305 307 307 305 303 303 302 301 301 301 301 301 302 301 301 301 301 301
308 308 308 308 308 308 308 308 308 308 308 308 309 309 309 309 309 309 309 309 309 309 309 309 310 311 311 307 305 306 306 307 307 308 308 308 309 309 309 309 309 308 309 309 309 308 308 308 308 307 306 306 304 304 305 303 304 304 302 305 310 310 305 302 303 303 303 303 302 303 305 307 308 306 303 303 302 301 302 302 302 302 301 302 301 301 301 301
308 308 308 308 308 308 308 308 308 308 308 308 309 309 309 309 309 309 309 309 309 309 310 309 310 310 309 306 306 306 306 307 307 307 308 308 308 308 308 308 308 308 308 308 308 307 308 308 309 306 304 305 305 305 306 305 305 305 304 309 313 311 306 305 303 302 303 303 301 303 306 307 306 305 304 303 302 302 302 302 302 302 302 302 302 301 302 301
308 308 308 308 308 308 308 308 308 308 308 309 309 309 309 309 309 309 309 309 309 309 309 310 310 310 309 306 306 306 307 307 307 307 307 307 308 307 307 307 307 307 307 307 307 307 308 308 308 305 305 305 305 307 310 310 309 308 310 310 310 310 308 307 303 302 303 303 302 302 305 308 305 304 304 302 302 301 301 302 302 302 302 302 302 302 302 302
308 308 308 308 308 308 308 308 308 309 309 309 309 309 309 309 309 310 310 310 310 309 310 310 309 310 309 307 307 306 307 307 306 307 307 307 308 307 308 308 308 308 308 309 308 309 309 309 308 305 305 302 302 312 315 312 311 310 312 310 306 306 306 307 305 302 302 302 303 303 304 309 306 303 303 302 302 302 301 302 302 302 302 302 302 302 302 302
308 308 308 308 308 308 308 309 309 309 309 309 309 309 310 310 310 311 311 312 312 311 312 311 312 314 310 306 307 306 306 307 306 307 307 308 308 308 309 309 309 309 309 309 308 309 308 307 306 305 307 303 302 313 315 311 313 311 311 310 305 305 306 307 306 303 302 304 306 305 305 309 307 303 302 302 302 302 302 302 302 302 302 302 302 302 302 302
308 308 309 308 308 308 309 309 309 310 309 309 309 309 310 310 310 311 311 311 311 311 312 310 313 316 310 306 307 306 306 307 307 308 308 308 308 309 309 309 310 309 309 310 308 307 307 307 309 308 308 306 304 306 308 308 310 309 311 313 310 308 305 305 306 303 302 305 308 306 306 308 309 305 301 302 302 301 302 302 302 302 302 303 302 302 302 302
309 309 309 309 308 309 309 309 309 309 310 309 309 309 310 309 310 310 309 310 309 308 309 308 308 310 308 307 307 307 307 307 307 308 309 309 309 309 309 309 309 309 311 311 307 304 305 309 310 307 305 305 305 303 303 303 303 305 311 314 311 310 306 304 306 303 301 305 306 305 307 309 310 306 300 301 302 301 302 302 302 303 302 302 302 302 302 302
309 308 309 309 308 309 309 309 310 311 311 311 310 311 310 310 311 309 308 308 307 307 308 308 308 308 308 309 308 307 307 308 308 309 309 310 309 310 310 310 311 311 308 306 306 304 307 309 306 304 303 302 302 301 302 305 305 307 312 315 311 308 307 305 304 303 301 304 306 306 309 311 311 306 300 300 301 301 303 302 302 303 302 302 302 302 303 302
309 309 309 309 309 309 309 311 311 311 312 312 313 313 312 311 311 310 309 308 308 308 308 308 308 308 308 308 308 308 308 308 308 309 310 310 310 311 309 310 314 313 305 304 309 308 308 308 304 302 301 300 301 302 305 307 310 312 314 317 313 306 306 306 304 305 303 304 309 308 308 313 312 304 300 301 302 302 303 303 303 303 303 302 302 302 303 302
310 310 309 309 310 309 310 311 310 311 312 312 312 312 311 310 310 310 310 311 310 310 309 309 309 308 308 308 308 308 308 308 308 309 310 310 310 311 309 309 314 316 308 309 314 312 309 305 302 301 300 302 307 308 311 311 309 312 315 314 311 306 306 306 305 307 306 304 307 307 308 315 312 303 301 302 302 303 304 304 304 304 303 303 303 303 303 302
310 310 309 310 310 309 310 310 310 312 311 311 311 310 311 311 311 311 310 313 313 311 311 310 309 309 309 309 308 308 308 307 308 308 309 310 310 310 308 306 310 312 306 306 311 312 308 302 300 301 302 306 311 312 314 316 310 308 312 311 308 307 305 306 306 308 309 305 304 308 313 317 313 307 307 304 301 302 303 304 304 303 303 303 303 303 303 302
310 310 310 310 310 310 310 310 311 312 311 312 311 312 313 312 313 313 313 319 316 311 313 312 310 310 309 309 310 308 308 308 308 309 309 310 310 310 308 306 308 307 304 304 308 309 307 302 301 305 309 310 312 313 308 310 313 310 307 306 306 305 305 308 310 309 312 310 305 306 313 320 318 312 310 307 303 303 303 303 303 303 303 303 303 303 302 302
310 311 310 310 310 310 310 311 312 312 312 312 311 312 312 311 315 313 318 330 321 309 311 312 310 311 309 309 310 310 311 309 308 308 309 310 310 309 310 308 306 306 306 305 307 307 305 303 302 306 314 314 312 311 303 305 319 314 305 304 305 306 307 311 313 310 311 310 305 305 309 316 321 315 310 308 306 306 304 303 303 303 303 303 303 303 302 302
311 311 310 311 310 310 311 311 312 312 311 310 309 310 309 311 314 311 319 331 320 309 311 311 310 311 310 308 310 312 312 310 309 308 309 310 310 309 311 311 309 307 304 305 311 306 303 306 308 309 315 317 315 309 302 304 316 311 305 304 306 307 308 310 312 311 310 308 308 311 309 308 318 320 313 308 306 307 307 304 303 303 303 303 303 303 303 303
311 311 311 311 311 311 312 311 312 311 309 309 309 309 309 310 310 313 326 326 313 309 311 310 310 310 310 309 309 310 309 309 310 309 308 309 309 309 310 309 309 307 302 310 317 304 300 307 308 310 317 316 311 305 301 303 309 307 302 302 304 305 306 308 312 314 311 310 313 315 307 306 323 327 312 305 305 307 310 308 305 304 304 304 304 304 303 303
311 311 311 311 312 312 311 311 312 310 310 310 309 309 311 310 308 318 331 321 309 311 311 310 311 310 310 309 308 308 309 309 310 309 309 310 309 308 309 305 303 304 300 307 314 304 300 304 302 305 312 310 305 301 300 302 306 304 300 302 305 305 306 306 310 314 314 315 316 312 305 307 322 325 310 304 306 309 310 308 303 304 306 304 304 304 303 303
311 311 311 312 312 311 311 312 311 310 311 310 309 312 312 314 322 326 323 315 310 310 310 311 311 309 311 311 309 308 308 308 309 309 307 308 308 306 307 304 303 307 307 306 308 304 301 302 300 301 304 303 301 300 299 300 302 301 303 307 308 308 307 307 312 314 315 321 319 309 304 305 314 322 313 306 309 312 312 308 303 303 305 304 304 304 303 303
312 311 311 312 311 311 311 311 311 311 311 311 310 312 311 319 335 333 315 310 312 310 310 311 309 311 314 312 310 310 310 309 307 309 311 310 310 309 308 309 308 313 320 317 309 305 304 305 302 300 301 300 301 303 301 299 300 302 309 310 308 312 312 313 321 318 314 323 318 307 305 304 311 321 317 311 312 309 308 309 305 303 304 304 304 304 303 303
312 311 311 312 311 311 311 310 312 310 309 313 310 311 318 322 327 324 313 310 312 312 312 311 308 311 315 314 312 310 311 311 307 309 312 311 313 311 308 310 310 312 319 319 311 308 308 307 303 301 301 299 302 307 306 304 303 306 313 316 318 324 319 319 328 320 314 320 310 303 305 305 311 318 315 316 313 304 303 307 305 303 305 305 304 304 304 303
311 311 311 311 311 311 311 310 312 310 310 313 308 313 332 331 318 313 312 313 311 309 310 310 309 310 314 317 313 309 309 310 308 308 305 307 313 310 304 303 304 309 315 313 313 314 310 307 306 305 302 299 301 307 310 310 309 310 313 317 323 326 319 320 325 316 315 319 308 301 305 311 315 313 311 312 309 304 304 305 306 305 305 305 305 304 303 303
311 312 311 311 311 310 311 311 311 311 311 311 311 316 325 322 314 310 311 311 309 307 308 309 312 312 312 314 310 307 311 309 308 311 310 313 320 314 310 306 301 308 317 314 313 317 314 311 309 305 302 301 300 302 304 304 307 309 306 310 318 319 315 317 320 318 316 317 313 306 307 318 319 309 306 305 302 303 305 304 305 305 305 305 304 304 303 304
311 312 310 310 312 310 311 311 310 312 310 310 321 327 321 316 315 316 313 310 309 311 308 308 318 321 314 313 309 306 310 309 307 313 316 315 316 311 311 310 303 305 314 314 311 312 314 313 307 302 300 300 301 300 298 302 309 307 303 311 315 312 315 313 310 312 310 311 318 312 309 319 314 304 302 301 301 303 303 304 305 304 305 304 304 304 304 304
310 311 310 311 311 310 312 311 311 312 309 314 326 327 322 317 314 316 315 309 310 312 311 312 320 324 316 312 312 309 309 309 309 314 313 309 309 307 307 307 303 303 308 313 312 309 311 310 305 303 301 298 300 299 297 301 307 306 306 311 306 302 314 315 305 306 306 310 319 314 311 318 312 308 307 302 303 304 302 303 304 304 304 303 304 304 304 304
311 310 310 310 310 310 311 310 311 311 308 319 329 319 313 310 307 311 310 307 308 311 318 322 315 314 318 315 314 315 312 309 311 315 312 308 308 307 307 307 301 300 302 307 310 308 311 312 306 305 306 300 298 299 299 299 301 307 309 306 301 301 311 314 312 317 316 317 322 316 314 317 315 316 314 305 305 306 303 301 302 303 304 303 304 304 304 304
310 310 309 309 309 309 309 309 310 309 308 322 329 315 308 306 303 305 306 305 309 312 322 326 312 308 318 319 314 313 312 310 313 316 312 309 308 306 307 309 303 300 299 302 308 306 308 313 308 303 306 303 298 300 305 301 298 303 304 301 304 310 312 313 315 319 318 316 321 321 317 313 313 318 317 311 310 309 305 301 300 302 303 304 305 304 304 305
307 308 307 307 307 307 308 308 306 309 314 322 325 315 307 306 303 302 305 305 308 312 316 318 312 309 312 315 315 311 310 312 313 314 312 310 309 305 305 306 304 303 300 300 307 305 306 314 313 306 302 301 301 305 311 310 300 300 302 301 306 312 312 311 310 311 314 316 317 322 323 319 319 322 319 315 314 313 311 305 300 301 304 305 305 305 305 305
306 307 306 305 306 306 306 307 307 315 322 318 317 312 306 306 304 302 305 305 305 309 313 314 314 314 311 310 312 310 311 313 312 312 312 309 308 306 302 302 304 304 301 300 304 305 306 311 312 310 303 303 307 308 311 313 306 305 310 308 307 308 306 307 307 307 312 317 316 316 321 325 325 319 316 315 312 309 308 305 302 303 306 306 306 306 306 305
308 308 306 305 306 306 306 309 309 313 319 312 308 308 304 305 304 301 303 304 303 305 310 314 315 316 314 312 311 310 312 315 313 312 311 308 309 308 302 298 300 301 301 304 305 304 308 313 315 315 311 312 312 304 300 302 301 304 309 309 311 311 310 313 314 309 307 311 315 313 315 324 321 309 308 309 305 301 301 301 303 306 308 307 307 307 306 306
310 309 306 306 307 306 309 312 305 305 314 312 306 306 305 304 302 301 302 303 303 303 306 310 311 312 315 314 311 312 315 316 312 311 311 308 307 307 301 297 298 299 302 307 305 300 304 314 319 316 312 309 304 297 295 296 295 298 301 303 307 310 314 319 317 313 308 304 308 309 311 322 318 303 302 304 301 302 303 302 304 307 308 307 308 307 307 307
309 308 306 307 309 309 311 313 307 306 310 307 302 303 305 304 302 302 303 302 304 304 305 307 308 309 310 307 309 312 314 313 309 307 309 308 303 301 298 297 299 299 301 306 305 301 303 312 317 320 317 309 301 296 294 292 294 300 302 301 303 306 313 319 315 314 311 306 309 310 311 324 320 302 301 304 303 304 305 304 305 307 307 307 307 307 307 307
307 307 307 309 310 310 312 316 316 313 306 302 302 303 303 303 303 304 304 303 303 304 307 308 306 306 304 303 307 308 307 310 309 304 306 308 303 298 297 298 298 299 302 306 305 303 307 312 317 324 327 321 315 310 306 301 299 305 306 302 303 304 308 312 309 309 311 311 313 314 317 328 323 307 304 305 304 305 306 306 306 306 307 307 307 307 306 306
308 308 307 308 310 310 311 313 316 315 308 306 307 305 303 303 302 304 303 303 302 303 306 307 304 304 303 302 306 305 301 306 309 304 303 306 303 297 297 298 298 299 300 301 300 301 307 312 315 323 326 325 326 323 318 313 309 308 306 302 304 305 307 311 310 309 314 313 310 314 321 323 317 312 310 307 305 306 307 307 307 306 307 307 307 307 307 306
310 311 309 308 309 309 309 307 309 312 310 311 310 304 305 306 303 302 302 302 302 302 304 305 303 304 306 305 310 310 303 303 307 307 306 308 305 298 296 298 298 298 298 297 297 300 307 310 311 321 329 329 330 322 313 311 310 311 308 305 305 304 306 311 313 313 317 313 310 315 317 315 313 313 312 310 309 307 306 306 307 307 307 308 308 308 307 307
311 313 312 311 309 308 308 305 305 307 308 312 311 306 309 310 303 302 302 302 302 302 302 303 302 306 311 311 313 313 306 304 308 308 307 306 302 297 296 297 297 298 298 297 296 301 310 311 307 311 318 319 318 313 308 308 310 312 311 309 307 304 304 308 312 315 315 313 317 319 312 310 313 312 310 310 309 306 305 306 306 307 307 308 308 308 308 308
310 310 309 311 313 313 312 308 306 305 304 308 309 306 310 311 306 306 304 302 302 302 304 306 305 308 312 312 315 315 309 309 309 307 305 304 301 299 298 297 297 298 298 297 296 300 310 311 305 305 313 315 309 306 305 307 308 309 310 310 309 306 305 307 309 311 312 312 316 317 310 310 311 310 308 308 307 305 306 307 307 308 308 309 309 309 309 309
308 309 307 309 311 310 310 308 305 304 304 306 309 308 310 312 310 307 303 302 304 302 304 310 311 308 306 308 316 319 314 314 314 309 307 306 303 303 305 303 299 297 297 297 296 297 306 311 306 303 311 315 307 301 303 305 307 309 309 308 308 307 305 305 306 307 309 311 311 310 308 307 307 306 306 306 307 307 307 308 309 309 309 309 308 308 308 309
308 309 308 309 309 305 305 305 306 310 307 307 312 309 307 313 313 306 302 304 308 306 303 310 314 306 301 308 320 321 313 314 317 313 310 309 307 306 309 309 304 297 296 298 297 297 302 309 306 303 312 319 308 302 304 305 307 310 309 305 304 305 305 303 302 304 305 306 306 305 305 306 305 304 305 306 307 307 307 308 309 309 309 308 308 308 309 309
308 308 308 312 310 305 305 304 305 313 312 309 313 310 306 312 312 306 304 303 306 308 305 307 310 304 301 310 319 315 307 306 309 308 306 308 310 307 305 305 304 303 301 298 298 301 304 308 306 305 315 322 310 306 308 305 303 308 312 311 305 303 306 306 303 303 305 306 306 305 309 314 311 305 304 306 307 306 307 308 309 309 309 308 308 309 309 310
307 308 308 313 312 305 304 304 305 313 316 311 309 307 307 308 306 306 310 304 300 305 305 302 305 307 309 313 313 307 304 303 304 303 303 304 305 303 302 301 302 304 303 300 301 302 305 313 312 307 315 322 311 306 309 308 309 314 320 324 316 306 304 305 304 303 304 306 309 311 316 318 310 304 306 307 306 306 307 308 308 309 309 309 310 310 310 311
Wind_Speed
16 16 15 14 12 11 12 13 14 16 16 15 16 16 14 13 14 16 17 19 22 23 25 24 24 24 24 24 23 22 22 24 27 30 27 22 16 14 16 15 14 14 16 16 14 15 16 18 19 17 16 17 20 18 16 14 11 7 5 5 4 2 1 3 6 7 7 6 7 9 10 11 7 5 8 5 5 6 5 5 6 6 6 6 5 5 6 6
16 16 14 13 12 11 12 14 15 17 17 17 17 16 14 12 13 15 16 17 18 20 24 23 23 23 24 24 24 23 21 24 29 30 23 16 14 15 15 15 13 13 13 14 13 13 16 19 18 15 18 20 17 14 13 13 14 10 4 5 3 3 1 3 10 11 9 9 11 11 11 12 8 8 8 3 3 6 5 5 5 5 5 5 4 4 5 4
14 14 14 13 12 11 11 13 15 17 18 18 16 15 14 14 14 14 13 14 15 18 20 22 24 22 23 24 25 23 21 26 27 24 18 15 15 15 16 16 14 13 12 13 12 10 15 18 15 15 23 23 17 18 17 12 12 10 5 5 1 4 5 8 15 13 12 14 14 12 9 10 9 8 6 4 4 4 5 6 6 5 6 5 4 4 4 3
13 13 13 13 13 11 10 12 14 16 17 16 14 14 15 16 15 14 12 12 13 14 16 19 19 19 21 20 21 21 22 23 18 18 14 15 15 15 16 15 14 13 11 12 11 10 14 16 15 18 25 21 18 21 18 11 7 6 5 5 5 8 8 8 15 15 14 15 14 12 9 8 8 6 4 7 5 3 9 8 5 5 6 6 5 4 3 2
11 11 11 12 12 12 10 12 13 14 14 14 14 15 16 16 16 15 13 13 14 14 15 14 14 16 15 14 16 15 16 11 10 12 15 15 15 15 15 15 13 11 11 11 12 12 13 13 16 20 21 13 14 15 13 14 14 9 7 9 9 11 8 8 15 14 13 13 12 11 7 7 6 4 4 10 7 4 8 6 4 4 4 5 5 5 4 3
10 10 10 10 10 11 10 12 13 12 13 14 14 15 16 16 16 15 14 15 15 13 11 9 10 13 11 11 11 7 9 6 6 11 15 16 16 14 13 13 11 10 10 11 13 13 13 14 18 19 15 10 13 10 7 9 11 8 6 10 12 12 11 10 14 12 11 12 10 8 7 6 5 2 3 9 7 5 4 2 3 5 3 3 3 3 2 3
8 9 9 9 10 10 11 13 14 12 12 13 13 14 15 15 15 14 14 13 11 11 9 8 10 11 10 9 8 11 20 15 10 13 15 16 16 15 13 11 10 8 8 11 13 14 13 18 23 22 16 10 12 12 14 16 15 12 6 9 13 14 13 12 13 11 10 11 8 6 5 4 3 3 3 5 6 4 5 3 3 4 4 3 2 2 3 3
7 8 8 9 10 11 12 14 14 12 11 12 12 13 13 12 12 11 11 11 12 14 14 14 14 13 11 11 16 28 27 18 13 14 14 14 16 16 12 9 8 7 8 10 12 15 17 23 25 20 15 9 11 15 20 22 16 10 6 10 13 13 13 12 13 12 10 9 6 4 3 3 2 2 4 5 4 5 5 5 4 4 4 5 4 4 4 5
8 9 11 13 13 13 12 13 14 12 11 11 11 11 10 9 10 9 11 14 16 16 15 15 15 18 19 20 29 30 19 15 15 13 12 13 14 13 12 11 9 9 14 16 16 17 18 21 18 16 19 16 16 15 12 9 5 5 11 13 14 13 12 12 12 11 9 6 3 3 2 2 2 3 5 6 6 6 6 6 5 5 4 5 4 4 5 6
11 13 16 17 17 16 14 14 13 12 12 11 11 10 8 8 9 11 15 18 17 14 13 14 15 20 21 24 31 21 11 16 15 10 11 12 12 11 12 12 11 13 17 18 15 12 16 22 23 28 29 20 13 9 4 5 9 15 19 18 15 13 9 9 9 8 6 3 1 3 2 2 2 2 4 5 7 8 7 7 6 5 4 4 4 5 5 6
14 16 18 18 18 18 17 17 16 15 14 13 11 10 10 11 12 15 17 15 9 5 6 9 14 15 14 24 34 18 10 18 16 12 10 7 10 11 12 12 9 8 8 14 15 15 24 29 27 22 18 17 14 15 14 16 21 24 23 17 11 9 8 6 6 4 2 1 1 2 1 1 2 2 3 4 7 9 7 6 6 6 4 3 3 4 5 5
16 17 18 17 18 18 18 18 16 15 14 14 12 12 14 15 15 15 13 11 8 8 9 11 13 11 13 26 34 20 14 19 17 15 11 7 10 10 11 10 7 6 10 22 27 24 23 17 11 9 14 22 16 12 16 21 25 20 14 10 4 5 6 2 3 3 2 2 2 1 2 4 4 4 3 4 8 9 8 7 7 6 4 3 3 4 5 5
16 17 17 18 19 19 19 18 16 16 16 16 15 16 18 17 17 16 15 17 17 18 17 17 15 13 17 24 25 17 17 18 17 17 16 14 15 14 14 12 13 18 19 23 23 15 10 7 13 23 26 22 12 12 19 20 17 8 4 6 3 5 4 0 2 2 2 2 3 1 1 5 7 7 5 5 9 10 9 9 7 6 5 4 5 5 5 4
16 16 17 20 20 20 19 19 19 20 20 20 20 20 19 17 15 14 14 15 14 14 13 14 11 10 17 21 17 17 17 15 15 17 18 17 18 18 18 17 17 20 16 14 13 10 14 18 25 28 21 18 20 22 18 9 5 2 2 3 2 3 1 2 1 1 2 2 3 2 2 4 8 6 6 8 10 10 10 9 7 6 6 6 6 7 6 5
17 17 18 21 21 19 18 18 20 21 21 20 19 17 16 14 13 13 13 13 13 12 11 11 10 15 24 20 14 17 16 15 15 16 18 16 17 19 20 20 19 19 17 17 18 19 22 24 24 24 20 23 26 17 7 3 3 3 3 2 3 4 1 4 2 3 3 2 3 3 1 5 7 6 8 10 11 11 10 8 8 7 7 7 7 7 6 5
17 18 20 22 19 18 19 19 19 19 18 17 16 16 16 16 16 17 16 14 15 14 14 14 14 22 25 15 11 16 15 17 18 17 18 17 19 22 23 24 23 24 24 25 24 23 22 21 24 23 18 17 12 6 5 4 4 4 3 1 2 3 1 3 1 2 3 1 2 1 0 3 4 3 7 13 12 12 11 9 8 7 7 7 7 7 5 5
18 18 19 19 17 19 20 20 19 19 17 17 16 15 16 17 18 19 19 18 18 17 20 22 20 22 19 10 11 16 16 18 18 17 19 20 21 22 22 21 22 23 23 23 20 17 16 15 16 12 9 8 4 4 5 4 3 4 3 3 0 1 2 2 2 4 4 1 1 2 1 4 7 6 7 15 13 12 12 10 8 6 6 6 6 7 5 5
18 17 16 16 17 19 19 19 20 19 19 18 16 16 16 17 17 17 16 13 15 16 16 17 15 13 11 8 11 14 15 17 16 17 17 18 18 17 17 17 17 17 16 14 10 9 10 10 9 4 5 7 5 5 5 1 3 1 2 3 1 1 2 2 1 4 6 4 2 3 3 6 10 10 5 15 15 13 13 9 7 7 5 7 7 7 7 7
16 15 15 17 19 20 18 17 18 17 18 17 16 17 16 16 15 14 15 11 12 12 6 9 13 10 9 11 15 15 14 14 13 14 13 14 14 13 14 13 12 10 9 5 6 9 8 7 8 5 4 5 4 4 3 4 3 3 4 4 4 2 1 1 3 4 4 4 3 3 4 7 9 10 5 12 17 14 13 10 9 8 5 6 8 8 8 7
15 14 16 18 20 19 16 15 16 16 17 16 16 15 13 16 13 15 25 26 24 19 11 16 21 20 16 14 15 15 14 13 11 11 10 11 11 11 11 9 7 8 8 2 4 8 8 7 6 2 2 5 5 4 3 3 1 4 5 4 4 3 1 3 3 4 3 2 2 2 4 7 7 8 6 8 16 14 15 13 11 10 7 7 9 9 8 7
14 15 16 18 18 16 14 14 14 13 12 12 13 10 8 11 9 13 27 30 26 24 21 22 22 20 17 12 11 12 12 11 10 9 8 8 9 7 5 5 6 7 8 3 2 5 8 7 2 3 6 7 6 5 3 2 2 4 5 5 4 2 1 3 3 4 4 2 3 3 4 6 6 7 5 8 15 14 15 15 12 11 9 9 10 10 9 7
14 15 16 17 17 14 13 13 11 7 7 8 8 8 9 14 18 23 28 23 20 23 22 22 20 19 16 12 11 10 10 9 8 8 6 5 6 3 4 7 8 4 6 5 5 5 7 4 3 6 6 5 5 4 3 6 6 5 4 4 3 2 2 5 4 5 4 1 4 4 5 6 7 7 4 9 14 10 11 13 12 11 11 12 13 12 10 8
14 15 17 17 16 14 13 10 5 4 8 8 11 16 20 24 25 26 27 21 16 19 19 20 20 18 15 13 11 9 10 9 9 10 8 6 7 8 9 9 7 3 7 6 5 5 4 0 5 6 5 2 5 7 5 7 6 5 4 4 0 3 2 2 4 6 5 0 2 3 3 6 5 5 5 9 13 8 6 9 10 11 13 14 14 12 10 7
14 16 17 17 16 14 11 9 9 13 17 17 20 25 26 26 25 24 24 17 9 12 16 16 17 17 15 13 11 10 15 14 11 11 10 8 9 9 9 8 7 5 6 5 9 9 4 2 6 5 5 4 5 8 8 6 5 4 3 5 2 2 0 2 4 6 5 2 2 4 4 5 4 2 5 6 9 8 6 7 8 9 11 14 14 12 10 7
15 16 18 17 16 14 13 14 19 23 23 21 22 22 21 20 19 17 15 10 5 6 9 9 11 13 12 11 9 10 15 15 15 13 9 9 7 6 6 6 6 3 1 3 10 9 3 4 5 3 7 6 6 6 5 3 3 3 1 3 3 3 2 3 5 4 4 4 3 5 4 4 4 3 6 5 4 7 7 8 10 10 12 15 15 13 10 8
16 17 18 17 16 16 16 19 22 20 17 16 14 12 11 10 8 7 6 6 3 5 5 5 6 6 7 8 5 6 8 8 13 14 9 8 6 5 5 5 6 3 5 3 6 4 2 6 5 4 5 6 7 5 2 2 5 2 0 4 5 4 2 2 4 3 2 1 3 4 3 3 5 4 7 4 3 7 6 8 12 13 14 15 15 13 12 11
17 17 17 17 17 15 16 21 20 14 12 11 8 6 5 5 5 3 3 6 3 3 3 4 4 3 6 9 4 3 3 1 7 13 11 8 4 5 4 3 5 4 3 4 5 2 3 6 8 7 5 6 6 3 1 3 5 1 2 5 4 4 2 1 3 3 1 2 3 4 4 1 4 5 6 2 2 6 7 9 12 14 16 15 14 13 13 12
17 16 18 18 16 13 17 22 17 12 12 10 8 6 4 5 3 1 4 5 2 2 3 3 4 6 6 9 8 7 5 2 3 8 10 9 5 6 6 2 5 4 2 4 3 1 3 4 5 4 5 5 2 1 1 3 3 0 3 4 2 3 3 3 4 3 1 2 3 5 3 0 4 5 5 3 2 6 7 9 12 15 16 15 15 14 13 12
18 17 18 16 13 14 21 22 14 10 11 11 10 7 4 4 2 2 5 3 1 1 2 2 3 4 4 7 11 12 8 5 4 4 7 9 6 7 9 8 12 11 8 7 5 2 1 3 2 1 4 2 2 2 1 2 1 0 3 3 3 2 3 3 4 3 3 3 2 5 3 1 4 5 3 2 2 7 8 8 12 16 16 15 16 14 13 13
19 17 16 13 12 17 23 22 14 7 8 11 11 8 4 4 3 4 3 1 1 0 1 2 1 3 4 4 8 10 8 6 6 6 8 10 11 13 14 11 11 10 8 9 6 1 1 2 1 3 3 1 1 1 1 1 1 1 3 4 4 3 3 3 2 3 4 2 5 4 2 2 3 5 3 3 4 6 6 5 9 15 16 17 17 15 15 14
18 17 15 12 12 17 23 22 14 7 4 8 12 8 3 3 4 5 1 1 1 1 2 2 2 3 5 4 4 7 6 6 7 6 6 7 9 10 9 5 4 6 4 6 5 3 4 3 2 2 2 1 1 1 2 2 2 2 3 4 2 2 3 3 4 4 3 3 5 4 2 1 1 5 5 6 6 6 7 6 9 16 19 18 18 16 16 14
17 16 14 12 12 16 20 19 14 7 3 5 12 9 3 2 3 2 1 1 1 1 1 1 2 2 4 4 4 4 3 4 8 7 4 3 5 5 4 1 1 3 2 1 3 4 4 2 2 2 1 3 2 0 2 4 4 4 3 4 3 2 4 3 3 2 1 4 3 1 2 0 4 7 6 6 8 8 11 11 12 18 20 18 17 17 16 14
16 16 14 12 12 14 17 17 13 9 5 2 10 8 5 4 1 2 0 1 0 1 1 2 1 2 3 4 3 3 2 2 5 5 2 2 4 3 2 1 2 3 2 2 2 3 2 2 3 2 1 3 2 1 2 2 3 4 2 3 3 2 3 2 4 3 3 4 2 2 2 2 4 5 5 8 9 9 12 10 11 15 16 15 14 15 16 16
17 16 13 12 12 12 15 16 14 11 7 3 8 5 5 2 2 2 1 2 2 1 1 2 2 4 5 4 1 2 3 2 3 4 3 3 4 2 3 4 4 3 3 3 3 2 1 1 2 2 1 5 3 2 2 1 1 1 3 3 3 3 3 1 3 1 3 5 4 3 1 2 2 2 4 8 9 7 8 8 10 12 12 12 12 14 16 17
17 16 14 11 11 12 13 15 15 12 9 3 6 5 3 2 3 2 3 4 2 0 1 2 4 6 5 3 2 1 2 1 2 4 5 4 2 1 2 3 4 3 2 2 1 1 2 2 2 1 2 3 2 1 2 1 1 1 2 3 3 2 4 2 2 4 2 3 4 3 2 5 3 3 4 5 5 5 7 8 10 12 12 13 14 16 17 18
17 17 15 11 10 10 10 12 13 12 9 2 5 4 3 3 2 3 4 3 3 4 4 3 4 5 2 3 3 3 2 1 2 4 3 2 2 1 1 2 2 2 2 2 1 1 2 2 3 3 2 3 3 2 2 1 1 1 2 2 1 3 5 4 1 0 4 2 3 2 3 5 4 4 5 7 4 4 6 9 12 13 13 14 16 17 16 17
18 17 14 12 10 9 9 10 9 9 8 4 5 2 4 1 1 3 3 3 4 5 6 4 2 2 2 1 2 4 3 1 2 3 1 1 0 1 1 1 1 1 0 2 1 2 3 1 2 2 0 2 2 2 2 1 0 1 2 1 2 2 4 4 1 4 5 1 4 3 3 5 3 2 5 7 5 7 8 11 13 14 15 17 19 18 17 16
17 16 13 12 11 10 10 9 8 9 7 5 4 2 2 1 1 2 2 2 4 4 5 4 1 0 3 2 1 2 2 1 1 3 1 1 0 1 1 1 1 1 1 2 1 1 2 1 2 1 1 3 2 1 2 2 1 1 3 2 1 2 1 2 2 2 3 2 5 5 4 3 2 3 4 5 6 9 10 10 12 16 20 22 23 20 18 17
16 13 10 10 11 11 10 10 11 10 6 4 2 2 1 2 2 2 3 3 3 3 3 3 2 1 1 3 4 2 1 0 1 2 2 1 0 1 2 1 1 1 1 1 2 1 1 2 1 2 1 3 3 1 1 1 1 2 2 2 2 3 3 1 2 1 0 1 3 5 5 3 5 5 5 7 9 9 8 7 11 21 24 24 23 21 19 19
14 9 7 10 11 10 11 13 11 7 4 3 4 3 1 2 2 3 4 3 2 2 2 3 3 3 1 2 3 2 1 2 3 2 1 1 1 1 1 1 1 1 2 1 1 1 1 2 1 2 2 1 1 1 3 3 1 1 2 1 1 1 2 1 2 1 2 1 1 2 4 6 6 4 6 7 8 8 10 10 14 21 22 20 21 20 19 19
11 5 6 12 13 13 15 12 7 5 4 2 2 2 1 3 4 4 4 4 2 2 2 4 4 4 4 3 2 3 2 2 2 2 1 2 2 0 0 1 1 3 2 1 2 1 0 1 2 1 2 1 3 2 1 2 1 1 1 2 2 2 3 2 3 3 2 2 3 2 3 8 7 3 6 7 8 10 12 13 16 18 16 16 17 17 18 18
8 4 8 14 14 15 15 8 6 5 4 3 3 3 3 4 5 4 3 3 2 2 3 4 3 3 3 3 2 3 3 2 0 1 1 2 1 1 1 2 2 3 1 1 0 0 1 3 3 1 2 2 3 1 2 1 1 2 0 1 2 3 4 5 2 3 1 1 1 3 1 7 6 5 7 9 10 11 11 13 17 18 15 15 15 15 16 17
8 8 13 17 15 15 11 4 4 3 3 3 4 5 4 4 3 3 2 1 1 1 2 2 1 2 2 2 3 3 3 2 1 0 1 1 0 1 1 1 1 1 1 1 1 0 1 3 3 2 4 3 3 1 2 1 1 2 1 1 2 1 2 5 4 3 2 2 1 2 2 7 7 5 6 8 9 10 11 12 16 19 18 17 17 17 18 19
14 13 13 15 14 11 6 3 2 1 1 2 4 4 4 3 3 3 2 1 1 2 3 1 0 2 2 2 4 3 2 2 0 0 1 2 1 2 2 0 1 1 1 1 1 1 0 1 2 2 4 5 5 4 3 2 0 1 2 2 2 2 5 3 2 3 0 4 5 4 4 7 6 4 5 7 8 11 14 14 16 19 21 21 21 21 21 22
16 10 7 10 10 7 3 3 7 6 2 3 5 3 3 4 3 3 2 2 2 2 3 2 2 4 4 3 5 3 1 2 1 0 1 1 1 1 1 0 1 1 2 1 1 2 1 1 2 3 2 0 1 3 3 1 1 1 1 2 2 3 5 3 2 3 1 4 4 5 6 7 8 8 7 7 8 11 16 18 18 21 23 25 26 25 25 26
9 4 3 4 4 4 2 4 10 10 6 5 5 2 2 3 1 3 4 3 3 4 4 4 4 4 4 3 5 4 3 3 2 3 2 1 2 1 1 1 0 1 2 2 1 2 3 1 1 5 5 5 5 5 4 2 2 2 2 2 4 4 4 5 4 2 4 3 3 7 7 8 14 13 9 10 9 9 16 21 22 24 25 26 26 26 26 26
3 3 5 4 2 3 5 4 11 12 8 7 4 3 4 3 1 2 2 0 3 4 3 3 3 3 2 4 4 2 1 3 4 3 3 2 2 1 1 2 1 1 2 2 0 2 3 1 0 4 5 6 6 5 2 2 3 5 4 4 5 5 5 6 4 5 5 3 4 8 4 4 13 14 11 13 11 10 18 25 26 27 27 25 24 23 24 24
2 4 7 7 5 3 2 5 13 14 9 5 3 3 5 4 3 3 1 1 3 3 2 2 1 2 5 6 5 3 2 2 3 1 2 2 1 1 1 2 2 2 2 1 0 2 4 1 2 1 5 7 3 2 3 3 2 4 6 6 6 7 9 10 9 6 7 5 7 4 3 5 13 14 13 17 18 18 24 28 28 27 26 24 23 23 23 23
5 6 7 8 5 3 5 11 18 18 10 4 3 2 5 7 5 4 2 3 1 2 1 2 3 3 4 4 5 5 5 3 2 3 3 3 2 2 2 2 3 2 2 1 1 1 3 1 1 1 5 7 4 2 2 5 2 3 6 8 7 9 11 11 8 5 6 9 11 7 7 11 15 17 20 26 28 26 26 27 26 26 25 23 23 24 24 25
6 6 7 9 7 8 11 15 18 14 5 2 3 2 5 8 6 4 2 4 2 3 2 3 5 6 4 3 6 4 5 5 3 5 7 6 2 3 3 3 3 3 0 0 1 1 1 1 1 3 3 7 4 4 3 3 3 4 7 6 6 6 7 7 7 4 5 9 10 8 10 13 16 18 21 26 25 21 22 25 25 25 24 23 24 25 25 25
6 6 9 10 7 6 9 11 11 8 2 1 3 4 5 6 7 7 4 2 2 3 4 7 11 7 3 4 6 3 2 3 2 5 10 7 4 5 3 3 6 5 1 1 1 1 2 1 1 4 3 6 3 4 4 3 2 4 10 8 8 7 5 5 5 5 7 6 3 2 5 8 10 9 11 18 21 18 20 24 24 25 25 25 25 24 23 22
8 9 11 9 4 2 6 7 5 5 4 4 5 5 5 8 11 11 5 2 0 2 3 11 16 9 4 4 5 3 5 7 9 10 10 7 7 9 8 6 7 6 4 4 2 1 3 3 1 3 1 5 4 2 2 3 4 3 8 7 10 8 5 4 4 7 9 7 5 4 7 8 8 7 7 14 19 19 21 23 24 27 27 24 22 21 21 21
Wind_Direction
109 112 117 125 129 130 127 124 122 119 115 113 109 104 99 98 105 110 114 115 111 108 107 107 108 109 111 112 114 117 126 134 131 120 99 69 68 83 79 81 89 102 110 108 102 102 113 114 116 123 115 98 87 87 92 81 69 69 69 70 89 122 151 184 179 167 140 147 167 159 146 133 133 140 134 124 101 104 106 103 98 105 110 101 96 85 75 75
105 107 113 120 126 130 129 127 125 120 116 113 109 104 99 101 109 113 117 117 115 112 110 110 110 111 113 111 115 121 133 136 120 101 83 73 86 86 82 86 96 110 117 116 108 109 120 120 127 133 110 90 75 85 91 67 53 54 82 81 84 185 166 142 150 147 136 145 157 151 145 137 146 157 150 157 132 127 124 123 131 135 131 114 103 89 77 81
103 104 109 114 121 129 130 129 126 123 118 113 107 101 98 103 113 119 123 122 122 121 117 115 114 114 112 110 114 119 134 130 101 75 72 85 91 88 88 90 102 119 121 119 112 115 126 126 136 129 102 84 68 84 83 57 51 48 72 80 58 158 92 110 132 134 138 145 145 142 146 137 149 166 172 193 171 175 181 170 172 173 169 144 121 113 92 98
105 106 108 108 111 120 135 135 129 128 121 113 106 98 98 99 107 120 128 129 128 132 130 124 121 118 114 114 117 114 123 117 65 39 69 87 91 92 92 96 107 118 123 121 111 120 133 131 137 117 95 78 66 77 62 40 67 45 56 106 153 130 93 110 125 125 130 137 140 138 141 131 151 177 201 180 147 254 228 208 206 188 176 156 140 141 124 155
106 109 112 110 104 106 126 141 139 133 124 114 105 101 99 94 100 111 123 130 132 139 138 134 135 129 124 125 126 115 108 101 21 39 83 89 92 93 95 102 111 120 124 122 116 122 133 137 131 104 86 70 57 66 53 57 87 71 57 98 122 121 106 122 126 128 132 133 138 139 143 139 158 176 192 181 169 253 229 213 207 174 158 145 139 143 147 194
110 113 116 118 109 100 114 141 146 137 128 113 105 103 100 99 103 110 122 130 132 139 142 143 147 147 147 140 144 137 99 85 17 65 88 92 89 86 97 105 110 121 118 115 120 127 134 135 123 98 81 63 52 66 69 64 93 96 70 83 102 115 114 129 131 133 139 134 134 137 145 149 165 177 181 196 212 242 207 175 168 159 147 139 131 149 178 216
113 115 119 122 121 110 108 136 149 143 134 118 110 106 104 107 110 117 130 138 140 137 130 123 135 151 157 161 161 113 92 76 53 78 92 92 87 79 89 105 109 116 118 117 122 132 139 128 114 99 89 77 66 79 86 83 94 103 99 88 97 108 110 126 132 132 139 131 128 134 148 165 179 189 218 230 234 219 193 178 170 166 161 167 198 217 221 228
108 110 116 119 125 119 107 125 143 148 143 128 119 112 110 110 108 121 132 139 136 118 106 103 110 121 131 159 130 94 74 56 63 88 93 93 92 87 91 105 115 122 122 122 128 136 133 115 106 97 86 90 103 104 98 88 74 72 110 113 101 103 106 119 129 129 134 124 125 151 176 204 196 227 254 248 217 197 203 203 196 190 189 205 225 222 216 219
100 103 108 110 115 117 110 118 135 148 143 133 128 119 113 106 106 120 126 130 123 107 101 101 109 118 123 136 115 86 50 47 72 84 95 102 95 100 111 99 98 115 118 125 129 133 129 111 107 112 108 112 115 112 109 87 52 91 120 119 108 105 109 120 125 123 126 124 148 190 227 214 208 281 266 240 210 203 214 213 211 208 211 220 217 213 213 216
97 103 107 106 105 108 109 113 126 138 135 132 129 121 111 102 110 124 131 130 118 107 103 103 121 124 124 123 103 78 40 64 72 78 95 102 97 113 118 94 94 109 115 124 123 122 124 115 114 114 110 113 106 88 88 100 124 128 118 112 110 110 111 115 121 122 128 124 168 195 219 231 236 289 264 230 204 206 215 215 214 210 207 207 211 222 219 219
101 106 108 106 103 103 104 106 114 121 124 127 122 116 109 107 118 128 136 134 124 127 117 121 130 129 134 110 91 78 63 72 72 78 86 98 109 118 109 101 108 106 114 124 115 113 116 115 113 105 96 106 98 78 88 113 126 125 115 104 96 107 112 111 124 134 154 172 278 192 170 283 264 253 251 218 201 210 215 214 211 206 201 196 220 231 226 234
105 110 110 108 106 103 101 101 108 116 120 120 115 113 112 114 122 127 129 117 101 104 118 140 137 149 146 95 79 78 75 75 79 80 79 91 105 108 101 102 103 98 122 121 116 117 116 116 117 112 117 120 109 86 107 125 125 121 112 98 62 74 91 111 140 155 203 243 262 186 39 327 274 233 232 206 200 207 215 222 213 203 206 215 235 237 239 254
106 109 112 114 111 105 100 97 103 114 119 116 112 112 114 117 115 115 114 104 99 100 111 129 130 151 137 84 69 84 82 78 88 88 85 84 90 96 95 97 105 113 121 119 118 121 115 126 130 126 126 121 111 119 131 132 123 116 93 100 75 27 23 302 145 197 206 220 253 165 35 304 271 232 216 206 201 204 218 225 215 207 215 222 231 240 250 265
104 107 116 120 115 106 100 99 104 111 114 112 110 111 114 114 106 106 110 108 113 111 114 125 132 151 117 85 77 89 84 89 100 97 91 88 92 95 99 104 112 118 121 115 117 119 116 128 128 118 110 110 119 126 126 118 103 105 77 76 80 68 358 287 54 30 109 197 253 91 103 275 278 250 212 204 202 208 226 225 217 221 226 230 231 237 250 268
103 106 118 124 116 104 100 106 111 112 111 109 108 110 111 106 98 97 96 104 118 118 121 124 135 128 100 83 84 87 88 101 102 96 93 95 97 98 103 107 107 108 109 108 110 115 123 130 118 99 96 112 121 119 96 48 26 58 89 344 351 90 284 303 15 61 66 226 233 93 118 265 285 264 211 201 203 214 235 234 225 232 237 240 233 233 248 264
108 108 119 125 113 102 101 106 112 114 112 108 106 106 105 101 97 94 90 100 113 122 129 112 111 113 96 75 86 92 94 97 92 91 96 103 105 105 107 105 104 104 105 107 110 116 121 119 101 89 97 109 109 91 57 45 12 6 95 117 344 71 49 323 20 28 12 257 228 94 244 264 291 276 202 199 205 218 235 241 235 242 247 242 229 227 241 249
113 112 120 124 115 109 106 104 108 111 109 107 108 109 108 105 103 101 97 102 108 112 113 102 101 98 82 78 95 86 88 91 91 96 101 106 108 110 111 110 109 108 110 111 113 115 107 100 98 89 79 72 48 76 72 32 354 336 39 89 307 90 76 354 319 342 9 67 240 341 274 243 276 299 213 201 208 222 234 244 241 240 245 242 226 216 222 236
120 117 121 126 125 118 111 107 108 108 106 105 107 110 111 110 115 111 104 111 108 104 104 96 100 90 66 85 94 81 88 94 97 99 100 107 112 115 115 113 111 113 113 109 100 92 84 83 98 92 41 37 17 57 82 159 170 151 81 105 101 75 69 50 281 327 10 38 24 2 317 272 290 316 252 204 209 223 235 248 244 240 245 240 222 208 214 227
129 122 122 127 131 125 116 112 111 110 110 111 112 112 111 110 111 99 95 106 90 86 92 61 72 100 110 102 90 88 95 96 98 98 101 111 113 118 117 111 115 116 103 86 38 47 70 76 75 70 18 355 345 44 107 179 149 132 144 135 120 107 45 316 252 290 13 37 20 4 302 289 291 317 311 208 209 222 238 248 244 241 235 219 212 208 211 215
140 132 127 129 134 130 119 114 116 117 114 119 124 122 119 107 92 70 76 80 73 75 86 72 78 99 110 102 94 95 94 92 99 98 102 113 117 119 114 110 113 84 57 31 2 36 74 76 50 86 268 292 279 265 240 230 154 126 110 88 97 111 350 289 272 303 15 56 329 301 286 286 272 302 327 200 204 220 234 241 242 235 222 212 210 207 206 207
146 142 136 133 137 132 123 121 121 119 116 129 135 137 139 112 100 91 83 75 70 75 80 80 85 92 92 95 102 101 95 92 97 96 96 112 124 120 95 88 92 59 17 11 80 53 76 78 18 237 242 270 286 279 229 160 82 109 110 92 70 63 309 273 270 307 356 53 266 323 338 296 270 304 338 170 193 219 230 236 241 232 221 218 213 204 203 209
144 146 142 138 138 133 131 129 122 120 123 139 145 143 140 119 114 113 101 84 71 71 73 79 83 81 81 86 94 103 103 88 73 71 81 112 120 111 87 75 77 61 349 19 85 55 55 69 260 265 275 285 338 356 107 94 71 69 90 99 61 10 292 279 292 316 351 39 270 340 4 293 273 295 302 186 194 219 236 239 246 238 224 214 208 206 208 214
145 147 146 143 139 134 135 130 118 123 128 136 133 124 121 115 110 105 98 90 74 64 65 72 73 70 72 72 78 97 96 72 44 44 56 100 96 81 92 79 65 51 0 20 104 101 79 2 279 300 314 337 27 22 55 67 58 47 59 97 47 325 3 270 296 320 327 328 281 358 354 292 292 301 285 219 209 231 251 237 242 240 231 219 210 212 218 223
148 148 148 146 141 135 128 112 103 111 117 122 121 118 115 110 106 99 93 89 76 56 55 58 58 58 61 62 67 82 82 65 40 36 50 82 87 76 84 75 65 63 19 47 96 99 112 290 314 342 18 77 77 34 38 62 48 17 54 110 154 302 24 238 284 322 329 351 29 41 16 310 312 293 278 246 224 241 245 223 227 225 216 211 208 213 223 233
151 150 149 146 141 132 118 112 113 113 114 116 114 113 113 110 106 99 89 82 68 29 34 45 43 43 49 56 65 78 78 63 41 35 47 65 77 91 89 65 63 86 270 77 83 83 79 332 328 10 37 55 85 55 30 91 91 11 5 147 165 184 201 297 324 358 22 3 359 43 36 298 305 270 253 264 242 238 232 223 221 203 191 197 206 216 223 233
152 152 151 148 141 130 123 126 124 116 110 111 111 111 113 114 111 106 86 71 47 343 3 26 17 25 34 32 47 77 73 52 39 37 45 54 61 105 95 41 57 130 199 133 87 91 22 3 31 83 71 51 67 65 354 132 108 42 230 165 160 151 127 14 12 47 86 300 324 50 96 257 316 287 243 255 257 250 246 235 223 204 200 206 213 223 229 233
151 153 155 151 143 134 136 140 132 113 99 98 104 106 113 122 112 107 64 54 20 320 359 5 3 31 27 15 9 91 82 71 47 36 39 51 53 105 104 22 62 103 178 123 83 36 337 5 33 51 68 60 55 47 332 121 103 59 184 139 124 115 115 99 68 74 206 270 331 27 95 185 299 272 260 274 247 272 274 251 236 215 211 217 220 227 231 232
152 154 156 150 145 143 149 148 133 103 85 81 83 85 106 135 137 94 79 75 338 330 29 13 54 59 41 42 54 81 94 109 74 23 28 50 54 94 96 84 111 102 50 113 130 322 352 3 9 27 59 64 69 284 238 138 96 283 187 135 107 124 142 140 92 77 339 4 329 329 32 98 272 277 311 355 227 273 270 245 238 222 215 219 221 224 227 228
155 154 154 149 145 147 153 152 139 105 78 61 58 58 79 130 159 52 79 100 276 23 57 30 63 33 18 54 54 63 74 60 60 29 32 53 56 86 93 96 110 96 48 72 137 184 42 17 340 82 81 74 234 265 229 147 68 163 147 93 52 69 89 84 83 90 31 33 267 290 5 36 276 280 315 11 247 256 252 243 233 221 217 219 219 221 222 223
158 156 153 148 144 151 158 161 157 128 73 45 38 40 69 102 94 65 55 190 191 59 352 356 319 333 357 50 42 38 54 47 43 56 62 67 70 87 98 99 101 92 51 54 82 159 45 61 22 59 73 185 219 321 355 69 18 122 101 56 38 30 44 56 50 82 59 344 253 268 346 57 301 278 232 205 222 213 208 244 237 221 219 218 218 220 220 222
158 157 154 149 148 157 164 168 170 151 78 36 24 24 76 79 66 90 113 227 126 328 354 17 333 7 34 79 55 12 27 33 18 40 62 53 55 69 84 95 74 62 34 32 43 345 354 25 3 40 52 7 68 70 3 14 31 82 77 59 69 348 11 27 356 37 72 281 261 272 310 113 211 264 243 233 246 214 187 198 213 214 216 217 218 220 220 224
156 158 158 153 153 162 169 175 177 171 143 31 12 10 84 67 23 113 241 333 34 279 114 37 325 50 55 61 47 345 0 27 14 39 67 37 41 38 46 138 154 53 13 329 37 4 351 337 315 340 31 28 55 147 346 0 31 61 63 65 80 347 6 13 324 349 206 250 258 301 326 178 227 248 248 248 252 229 208 205 206 209 211 215 220 222 223 226
158 161 162 161 159 164 172 181 187 189 190 3 358 2 76 88 225 200 299 22 107 271 113 97 35 70 70 55 26 331 24 25 357 33 57 55 69 44 18 67 118 115 160 173 98 26 351 284 339 359 343 14 42 103 13 341 21 57 94 92 90 71 43 328 290 319 289 269 267 295 315 298 277 264 235 243 251 231 218 220 218 213 212 216 222 225 228 230
160 161 164 167 168 173 179 187 196 198 202 326 355 23 82 101 217 180 225 234 222 339 56 100 68 45 48 65 321 292 58 30 337 28 27 31 56 29 340 358 24 86 123 116 130 117 114 240 341 42 331 353 16 77 76 211 1 25 178 131 105 131 125 240 257 239 280 292 295 305 300 198 251 275 230 256 273 251 221 219 216 214 216 222 228 229 231 234
162 161 162 164 168 178 185 193 202 205 215 294 16 65 112 208 214 153 187 211 211 130 56 61 77 58 21 359 336 332 94 15 357 42 33 40 85 58 331 318 346 42 106 101 157 127 98 239 266 328 320 3 35 13 41 87 27 246 180 79 65 141 129 120 191 187 208 321 302 287 240 213 229 284 302 325 305 230 205 206 205 210 216 220 226 229 233 238
167 166 165 162 163 169 177 192 202 209 219 231 52 75 183 208 191 167 166 150 150 156 125 73 67 72 14 328 355 7 22 27 43 50 28 41 143 214 324 264 312 24 107 126 159 126 90 266 298 345 348 48 51 343 10 66 271 284 69 55 192 153 116 107 185 326 71 37 288 291 277 290 325 316 327 360 341 252 226 219 212 211 217 222 228 232 236 242
173 174 173 172 172 167 166 177 184 194 199 141 86 170 216 198 182 178 152 119 142 136 110 103 76 94 157 256 321 325 356 23 41 61 68 7 138 220 292 263 270 332 122 114 150 174 134 149 319 0 2 347 7 2 13 48 162 84 100 182 207 120 95 100 70 355 38 28 285 325 293 298 340 318 321 340 307 275 258 238 232 227 223 228 235 237 240 245
178 181 181 184 187 182 177 175 170 171 163 107 84 212 191 151 217 186 148 126 139 107 86 119 146 150 174 158 213 277 356 352 3 56 113 228 63 182 205 271 261 286 320 78 112 194 121 113 304 292 204 306 335 54 7 355 17 100 137 162 126 117 94 49 65 24 16 326 294 315 304 274 223 236 292 293 249 247 252 245 242 238 230 233 240 244 245 246
173 174 172 180 185 184 181 175 169 163 134 93 140 203 165 173 211 178 160 139 126 103 95 153 146 67 146 145 152 194 4 133 150 82 124 169 84 216 196 198 225 254 307 103 136 199 97 105 265 249 225 314 351 63 231 294 353 41 60 7 17 125 154 62 58 123 210 303 296 320 331 291 234 216 216 239 236 232 239 238 237 237 234 237 244 249 250 248
158 149 142 163 167 166 165 160 156 146 105 104 172 176 159 173 167 164 164 147 119 121 149 172 142 110 140 156 153 156 87 120 142 114 141 156 137 233 216 198 251 296 310 308 117 82 39 79 248 295 318 295 288 238 201 182 155 70 50 6 352 75 137 137 30 95 130 139 204 329 323 280 254 210 193 231 245 231 223 222 232 239 239 243 248 252 254 253
150 125 134 154 149 150 153 141 109 86 95 113 141 144 163 150 141 142 145 138 113 98 137 147 136 137 148 144 174 173 111 79 112 113 171 184 141 170 272 85 12 346 341 1 57 53 59 122 150 326 345 234 250 279 166 135 100 113 129 182 165 109 105 100 331 324 88 127 170 149 291 276 263 209 205 239 262 260 247 234 237 246 249 249 252 255 258 258
151 121 144 150 146 151 147 113 48 62 102 116 102 113 142 135 130 131 133 136 122 84 102 114 110 127 144 133 158 167 123 87 89 114 169 203 163 142 112 70 35 4 25 126 2 318 145 98 100 185 248 238 281 326 103 71 31 102 71 248 137 112 110 120 231 265 96 87 134 108 270 272 262 223 231 260 281 287 279 258 252 256 258 259 262 262 260 261
142 127 145 150 150 154 143 78 27 41 63 107 103 98 117 123 124 141 140 122 140 117 91 84 87 104 154 159 130 147 133 114 161 162 161 205 35 114 144 47 12 19 83 179 271 354 63 76 78 304 297 319 336 6 108 40 43 92 293 242 140 119 120 138 168 178 145 180 148 85 272 270 275 268 266 279 290 294 286 274 269 266 262 263 265 265 265 265
126 120 143 155 159 165 153 111 128 108 71 122 91 81 94 81 86 127 158 134 119 131 107 105 128 99 119 119 99 131 168 123 81 346 127 159 122 130 164 303 296 201 159 175 137 90 28 89 91 36 353 349 348 351 352 350 3 199 239 220 180 106 98 117 129 81 20 217 156 131 248 257 269 302 310 301 299 291 280 276 278 275 271 270 270 270 269 267
124 110 134 156 171 186 182 166 154 144 160 127 101 112 101 65 67 94 110 116 101 109 113 111 126 112 108 94 77 65 43 73 116 162 81 112 173 155 159 271 287 200 166 146 110 109 144 149 112 107 105 205 276 280 274 273 245 232 176 173 198 139 125 149 115 80 273 240 152 162 231 265 285 301 312 306 301 294 287 285 285 282 282 283 283 282 277 272
131 106 139 154 193 194 132 160 151 139 154 144 115 143 119 82 101 97 93 108 101 99 99 104 132 115 77 76 80 52 8 22 73 123 123 179 226 239 196 190 150 148 149 130 65 83 112 93 121 143 168 189 190 217 222 146 138 217 193 183 195 171 136 123 111 147 195 176 185 223 235 284 294 294 305 307 301 291 292 296 296 295 296 297 296 295 289 281
141 144 159 150 188 144 94 141 152 139 152 158 136 157 143 115 137 106 73 122 139 126 92 78 134 138 120 126 106 78 358 10 37 88 124 188 230 290 246 216 189 186 174 151 38 80 96 6 278 158 210 224 196 204 213 133 198 208 189 190 189 177 151 142 174 207 163 124 274 254 205 244 278 285 297 300 300 297 296 300 302 303 305 308 308 307 300 292
172 158 160 156 170 156 100 171 158 133 126 139 119 128 138 130 152 160 146 137 153 164 107 69 295 214 171 158 124 117 140 41 34 117 153 181 195 32 324 251 248 229 189 147 271 105 111 198 249 169 265 266 237 221 195 172 231 214 188 193 185 177 180 188 210 200 158 187 250 246 153 233 269 285 289 285 288 292 295 299 303 305 308 311 313 311 307 303
152 140 147 155 156 118 126 156 150 130 113 112 102 123 156 155 169 192 156 108 137 267 147 154 226 206 168 147 113 134 177 147 132 209 184 159 172 132 119 234 236 218 194 116 21 77 114 198 205 146 292 296 318 332 200 178 211 258 227 213 192 189 196 207 227 206 189 241 263 279 289 276 271 270 272 280 287 290 293 299 303 307 312 314 312 309 306 306
169 156 151 138 103 92 118 139 140 126 96 80 116 161 165 156 168 188 146 116 152 219 205 175 176 161 147 119 107 136 205 185 171 208 179 143 163 198 181 194 171 145 119 81 34 41 112 245 176 109 328 305 328 28 52 139 176 248 263 239 193 194 209 225 247 224 217 259 271 277 283 280 271 261 263 278 288 290 292 300 307 313 317 317 313 312 311 311
201 189 167 141 101 91 125 136 133 123 101 172 157 165 174 179 177 154 110 42 139 174 206 172 148 136 79 80 97 93 217 178 144 183 167 141 148 181 178 171 154 137 134 163 89 78 116 73 25 74 23 298 305 39 30 46 80 279 282 256 199 186 197 215 225 202 196 215 227 257 264 260 263 264 270 287 296 295 294 303 312 317 322 322 318 319 321 322
205 188 176 154 113 125 152 139 116 122 163 190 163 158 178 189 175 147 105 350 292 115 187 165 145 127 72 86 108 98 101 99 91 110 129 115 107 117 105 109 131 132 154 155 101 36 121 114 120 91 73 269 291 353 336 23 37 306 274 228 186 182 198 226 249 223 203 177 152 202 231 243 281 310 312 301 302 304 306 310 312 314 322 329 326 327 330 330